Location: Feydey
(46.3431°N, 7.0106°E)
Time: 07:01:13
(UTC+00:00)

Meteor 2-20 Rocket - Pass Details

Date: 20 June 2021
Orbit: 940 x 959 km, 82.5° (Epoch: 28 July)

Event Time Altitude Azimuth Distance (km) Brightness Sun altitude
Rises 19:57:08 0° 178° (S) 3,612 7.1 -4.8°
Reaches altitude 10° 19:59:37 10° 176° (S) 2,668 6.4 -5.1°
Maximum altitude 20:05:40 68° 95° (E) 1,018 4.5 -5.9°
Drops below altitude 10° 20:11:43 10° 14° (NNE) 2,674 7.3 -6.6°
Sets 20:14:13 0° 12° (NNE) 3,621 8.0 -6.9°
